Flag Weather past 2 weeks in Detmold, North Rhine-Westphalia, Germany

Now
40 °F

Clear.


Feels Like: 36 °F
Forecast: 43 / 54 °F
Wind: 5 mph from Southeast

Location: Bad Lippspringe

Current Time: Nov 22, 2014 at 4:12:59 AM

Latest Report: Nov 22, 2014 at 4:00 AM


Visibility: N/A

Pressure: 30.14 "Hg

Humidity: 81%

Dew point: 34 °F

Location of DetmoldLocation

Historic Weather in Detmold — Graph

°F

Detmold temperature yesterday

Maximum temperature yesterday: 45 °F (at 2:00 PM)
Minimum temperature yesterday: 39 °F (at 5:00 AM)
Average temperature yesterday: 42 °F

Past Weeks' High & Low Weather Summary

 TemperatureHumidityPressure
High57 °F (Nov 12, 3:00 PM)99% (Nov 16, 7:00 AM)30.37 "Hg (Nov 16, 7:00 AM)
Low39 °F (Nov 21, 5:00 AM)57% (Nov 8, 2:00 PM)29.50 "Hg (Nov 16, 6:00 AM)
Average47 °F85%29.87 "Hg
* Reported Nov 7 3:00 AM — Nov 22 3:00 AM, Detmold, Weather by CustomWeather, © 2014

Note: Actual official high and low records may vary slightly from our data, if they occured in-between our weather recording intervals... More about our weather records

Advertising

Detmold weather history for previous 24 hours

 ConditionsComfort  
Time TempWeatherWind HumidityBarometerVisibility
3:00 AM
Nov 22
40 °FClear.3 mph82%30.15 "HgN/A
2:00 AM39 °FClear.6 mph83%30.16 "HgN/A
1:00 AM40 °FPassing clouds.5 mph84%30.18 "HgN/A
12:00 AM40 °FPassing clouds.6 mph84%30.19 "HgN/A
11:00 PM
Nov 21
41 °FOvercast.6 mph83%30.19 "HgN/A
10:00 PM40 °FClear.3 mph85%30.21 "HgN/A
9:00 PM39 °FPassing clouds.2 mph87%30.21 "HgN/A
8:00 PM40 °FPassing clouds.3 mph86%30.21 "HgN/A
7:00 PM42 °FOvercast.5 mph82%30.21 "HgN/A
6:00 PM43 °FOvercast.5 mph80%30.21 "HgN/A
5:00 PM43 °FOvercast.5 mph79%30.22 "HgN/A
4:00 PM44 °FOvercast.5 mph78%30.22 "HgN/A
3:00 PM44 °FOvercast.5 mph75%30.23 "HgN/A
2:00 PM45 °FOvercast.3 mph76%30.24 "HgN/A
1:00 PM44 °FOvercast.3 mph81%30.26 "HgN/A
12:00 PM44 °FOvercast.5 mph83%30.28 "HgN/A
11:00 AM43 °FOvercast.5 mph84%30.29 "HgN/A
10:00 AM42 °FOvercast.6 mph85%30.28 "HgN/A
9:00 AM42 °FOvercast.5 mph87%30.29 "HgN/A
8:00 AM41 °FOvercast.6 mph88%30.28 "HgN/A
7:00 AM40 °FOvercast.6 mph90%30.28 "HgN/A
6:00 AM40 °FOvercast.5 mph89%30.29 "HgN/A
5:00 AM39 °FOvercast.3 mph91%30.30 "HgN/A
4:00 AM41 °FOvercast.2 mph86%30.32 "HgN/A
Weather by CustomWeather, © 2014

See weather overviewHow to use our weather pages